CW2293 Weather Reports


time (UTC)temp
F
wind
direction
speed
knots
gust
knots
rain 1hr
in
rain 24hr
in
rain mn
in
humidity
%
barometer
mb
20230325072304 0 40 0.0 0.0 0.00 0.00 0.00 2 886.4
20230325071802 0 40 0.0 0.0 0.00 0.00 0.00 2 886.4
20230325071301 0 40 0.0 0.0 0.00 0.00 0.00 2 886.4
20230325070802 0 40 0.0 0.0 0.00 0.00 0.00 2 886.4
20230325070303 0 40 0.0 0.0 0.00 0.00 0.00 2 886.4
20230325065803 0 40 0.0 0.0 0.00 0.00 0.00 2 886.4
20230325065301 0 40 0.0 0.0 0.00 0.00 0.00 2 886.4
20230325064803 0 40 0.0 0.0 0.00 0.00 0.00 2 886.4
20230325063803 0 40 0.0 0.0 0.00 0.00 0.00 2 886.4
20230325063302 0 40 0.0 0.0 0.00 0.00 0.00 2 886.4
20230325062802 0 40 0.0 0.0 0.00 0.00 0.00 2 886.4
20230325062305 0 40 0.0 0.0 0.00 0.00 0.00 2 886.4
20230325061801 0 40 0.0 0.0 0.00 0.00 0.00 2 886.4
20230325060803 0 40 0.0 0.0 0.00 0.00 0.00 2 886.4
20230325055802 0 40 0.0 0.0 0.00 0.00 0.00 2 886.4
20230325055304 0 40 0.0 0.0 0.00 0.00 0.00 2 886.4
20230325054801 0 40 0.0 0.0 0.00 0.00 0.00 2 886.4
20230325054302 0 40 0.0 0.0 0.00 0.00 0.00 2 886.4
20230325053801 0 40 0.0 0.0 0.00 0.00 0.00 2 886.4
20230325053303 0 40 0.0 0.0 0.00 0.00 0.00 2 886.4
20230325052802 0 40 0.0 0.0 0.00 0.00 0.00 2 886.4
20230325052305 0 40 0.0 0.0 0.00 0.00 0.00 2 886.4
20230325051303 0 40 0.0 0.0 0.00 0.00 0.00 2 886.4
20230325050802 0 40 0.0 0.0 0.00 0.00 0.00 2 886.4
20230325050302 0 40 0.0 0.0 0.00 0.00 0.00 2 886.4
20230325045801 0 40 0.0 0.0 0.00 0.00 0.00 2 886.4
20230325045305 0 40 0.0 0.0 0.00 0.00 0.00 2 886.4
20230325044802 0 40 0.0 0.0 0.00 0.00 0.00 2 886.4
20230325043801 0 40 0.0 0.0 0.00 0.00 0.00 2 886.4
20230325041802 0 308 0.0 0.9 0.00 0.00 0.00 2 886.4
20230325041301 0 357 0.0 4.3 0.00 0.00 0.00 2 886.4
20230325040802 0 23 0.0 0.0 0.00 0.00 0.00 2 886.4
20230325040303 0 23 0.0 0.0 0.00 0.00 0.00 2 886.4
20230325035803 0 23 0.0 0.0 0.00 0.00 0.00 2 886.4
20230325035305 0 23 0.0 0.0 0.00 0.00 0.00 2 886.4
20230325034803 0 23 0.0 0.0 0.00 0.00 0.00 2 886.4
20230325034303 0 23 0.0 0.0 0.00 0.00 0.00 2 886.4
20230325033802 0 23 0.0 0.0 0.00 0.00 0.00 2 886.4
20230325033303 0 23 0.0 0.0 0.00 0.00 0.00 2 886.4
20230325032802 0 23 0.0 0.0 0.00 0.00 0.00 2 886.4
20230325031803 0 23 0.0 0.0 0.00 0.00 0.00 2 886.4
20230325031303 0 23 0.0 0.0 0.00 0.00 0.00 2 886.4
20230325030801 0 23 0.0 0.0 0.00 0.00 0.00 2 886.4
20230325030303 0 23 0.0 0.0 0.00 0.00 0.00 2 886.4
20230325025803 0 23 0.0 0.0 0.00 0.00 0.00 2 886.4
20230325025301 0 23 0.0 0.0 0.00 0.00 0.00 2 886.4
20230325024802 0 23 0.0 0.0 0.00 0.00 0.00 2 886.4
20230325024302 0 23 0.0 0.0 0.00 0.00 0.00 2 886.4
20230325023803 0 23 0.0 1.7 0.00 0.00 0.00 2 886.4
20230325022802 0 340 0.0 2.6 0.00 0.00 0.00 2 886.4
20230325022301 0 41 0.0 5.2 0.00 0.00 0.00 2 886.4
20230325021802 0 342 0.0 0.9 0.00 0.00 0.00 2 886.4
20230325021302 0 346 0.0 1.7 0.00 0.00 0.00 2 886.4
20230325020801 0 347 0.0 0.0 0.00 0.00 0.00 2 886.4
20230325015305 0 347 0.0 4.3 0.00 0.00 0.00 2 886.4
20230325014803 0 37 0.0 4.3 0.00 0.00 0.00 2 886.4
20230325014302 0 335 0.0 0.0 0.00 0.00 0.00 2 886.4
20230325013801 0 317 1.7 5.2 0.00 0.00 0.00 2 886.4
20230325012802 0 11 0.9 5.2 0.00 0.00 0.00 2 886.4
20230325011803 0 304 0.0 0.0 0.00 0.00 0.00 2 886.4
20230325011303 0 304 0.0 0.0 0.00 0.00 0.00 2 886.4
20230325010302 0 304 0.0 0.0 0.00 0.00 0.00 2 886.4
20230325005305 0 304 0.0 0.0 0.00 0.00 0.00 2 886.4
20230325004801 0 304 0.0 0.0 0.00 0.00 0.00 2 886.4
20230325004302 0 304 0.0 0.0 0.00 0.00 0.00 2 886.4
20230325003802 0 304 0.0 0.0 0.00 0.00 0.00 2 886.4
20230325003302 0 304 0.0 0.0 0.00 0.00 0.00 2 886.4
20230325002802 0 304 0.0 0.0 0.00 0.00 0.00 2 886.4
20230325001802 0 304 0.0 0.0 0.00 0.00 0.00 2 886.4
20230325001301 0 304 0.0 0.0 0.00 0.00 0.00 2 886.4
20230325000803 0 304 0.0 0.0 0.00 0.00 0.00 2 886.4
20230325000302 0 304 0.0 0.0 0.00 0.00 0.00 2 886.4
20230324235801 0 304 0.0 0.0 0.00 0.00 0.00 2 886.4
20230324235305 0 304 0.0 0.0 0.00 0.00 0.00 2 886.4
20230324234802 0 304 0.0 0.0 0.00 0.00 0.00 2 886.4
20230324234302 0 304 0.0 0.0 0.00 0.00 0.00 2 886.4
20230324233802 0 304 0.0 0.0 0.00 0.00 0.00 2 886.4
20230324233303 0 304 0.0 0.0 0.00 0.00 0.00 2 886.4
20230324232803 0 304 0.0 2.6 0.00 0.00 0.00 2 886.4
20230324232305 0 343 0.9 4.3 0.00 0.00 0.00 2 886.4
20230324231802 0 357 0.9 2.6 0.00 0.00 0.00 2 886.4
20230324231302 0 40 1.7 5.2 0.00 0.00 0.00 2 886.4
20230324225801 0 356 3.5 7.8 0.00 0.00 0.00 2 886.4
20230324225301 0 262 4.3 7.0 0.00 0.00 0.00 2 886.4
20230324224803 0 255 1.7 6.1 0.00 0.00 0.00 2 886.4
20230324223802 0 315 2.6 7.8 0.00 0.00 0.00 2 886.4
20230324222801 0 300 2.6 8.7 0.00 0.00 0.00 2 886.4
20230324222305 0 28 1.7 6.1 0.00 0.00 0.00 2 886.4
20230324221302 0 3 3.5 7.8 0.00 0.00 0.00 2 886.4
20230324220801 0 273 1.7 7.8 0.00 0.00 0.00 2 886.4
20230324220303 0 319 3.5 8.7 0.00 0.00 0.00 2 886.4
20230324215802 0 314 2.6 6.1 0.00 0.00 0.00 2 886.4
20230324215302 0 290 1.7 6.1 0.00 0.00 0.00 2 886.4
20230324214801 0 242 0.9 2.6 0.00 0.00 0.00 2 886.4
20230324214302 0 260 1.7 6.1 0.00 0.00 0.00 2 886.4
20230324213802 0 309 0.9 2.6 0.00 0.00 0.00 2 886.4
20230324212802 0 128 2.6 7.8 0.00 0.00 0.00 2 886.4
20230324212305 0 299 2.6 7.8 0.00 0.00 0.00 2 886.4
20230324211801 0 246 2.6 7.0 0.00 0.00 0.00 2 886.4
20230324211303 0 269 3.5 7.0 0.00 0.00 0.00 2 886.4
20230324210802 0 209 1.7 6.1 0.00 0.00 0.00 2 886.4
20230324210301 0 162 2.6 7.8 0.00 0.00 0.00 2 886.4
20230324204802 0 215 2.6 8.7 0.00 0.00 0.00 2 886.4
20230324204303 0 209 4.3 8.7 0.00 0.00 0.00 2 886.4
20230324203802 0 218 2.6 7.8 0.00 0.00 0.00 2 886.4
20230324202305 0 273 4.3 7.8 0.00 0.00 0.00 2 886.4
20230324201803 0 281 3.5 6.1 0.00 0.00 0.00 2 886.4
20230324201301 0 230 3.5 7.8 0.00 0.00 0.00 2 886.4
20230324200302 0 242 2.6 8.7 0.00 0.00 0.00 2 886.4
20230324195803 0 252 0.9 8.7 0.00 0.00 0.00 2 886.4
20230324195305 0 228 1.7 7.0 0.00 0.00 0.00 2 886.4
20230324194801 0 243 4.3 7.8 0.00 0.00 0.00 2 886.4
20230324194304 0 327 1.7 7.0 0.00 0.00 0.00 2 886.4
20230324193803 0 222 2.6 6.1 0.00 0.00 0.00 2 886.4
20230324193302 0 325 4.3 10.4 0.00 0.00 0.00 2 886.4
20230324192801 0 295 2.6 7.8 0.00 0.00 0.00 2 886.4
20230324192305 0 259 3.5 7.8 0.00 0.00 0.00 2 886.4
20230324190802 0 202 4.3 7.8 0.00 0.00 0.00 2 886.4
20230324185801 0 352 5.2 8.7 0.00 0.00 0.00 2 886.4
20230324185301 0 267 2.6 5.2 0.00 0.00 0.00 2 886.4
20230324184802 0 294 2.6 7.0 0.00 0.00 0.00 2 886.4
20230324184302 0 231 5.2 10.4 0.00 0.00 0.00 2 886.4
20230324183802 0 204 3.5 7.8 0.00 0.00 0.00 2 886.4
20230324183301 0 302 4.3 10.4 0.00 0.00 0.00 2 886.4
20230324182802 0 253 4.3 11.3 0.00 0.00 0.00 2 886.4
20230324182305 0 270 4.3 8.7 0.00 0.00 0.00 2 886.4
20230324181802 0 263 3.5 8.7 0.00 0.00 0.00 2 886.4
20230324181302 0 231 3.5 12.2 0.00 0.00 0.00 2 886.4
20230324180801 0 227 2.6 7.8 0.00 0.00 0.00 2 886.4
20230324180302 0 344 4.3 7.8 0.00 0.00 0.00 2 886.4
20230324175305 0 212 2.6 7.8 0.00 0.00 0.00 2 886.4
20230324174802 0 308 4.3 11.3 0.00 0.00 0.00 2 886.4
20230324174301 0 330 3.5 7.8 0.00 0.00 0.00 2 886.4
20230324173801 0 216 4.3 7.0 0.00 0.00 0.00 2 886.4
20230324173302 0 213 1.7 7.0 0.00 0.00 0.00 2 886.4
20230324172305 0 355 3.5 11.3 0.00 0.00 0.00 2 886.4
20230324171802 0 334 1.7 11.3 0.00 0.00 0.00 2 886.4
20230324171301 0 352 4.3 8.7 0.00 0.00 0.00 2 886.4
20230324170302 0 281 3.5 8.7 0.00 0.00 0.00 2 886.4
20230324165803 0 243 5.2 10.4 0.00 0.00 0.00 2 886.4
20230324164802 0 224 2.6 10.4 0.00 0.00 0.00 2 886.4
20230324163802 0 213 2.6 11.3 0.00 0.00 0.00 2 886.4
20230324163302 0 299 5.2 10.4 0.00 0.00 0.00 2 886.4
20230324162802 0 313 4.3 13.0 0.00 0.00 0.00 2 886.4
20230324162305 0 232 6.1 10.4 0.00 0.00 0.00 2 886.4
20230324161802 0 247 2.6 7.8 0.00 0.00 0.00 2 886.4
20230324161302 0 297 6.1 12.2 0.00 0.00 0.00 2 886.4
20230324160802 0 239 1.7 7.0 0.00 0.00 0.00 2 886.4
20230324160301 0 265 4.3 7.8 0.00 0.00 0.00 2 886.4
20230324154303 0 317 4.3 11.3 0.00 0.00 0.00 2 886.4
20230324153802 0 276 5.2 10.4 0.00 0.00 0.00 2 886.4
20230324153302 0 236 3.5 10.4 0.00 0.00 0.00 2 886.4
20230324152305 0 224 4.3 8.7 0.00 0.00 0.00 2 886.4
20230324151803 0 258 4.3 7.8 0.00 0.00 0.00 2 886.4
20230324151303 0 312 4.3 10.4 0.00 0.00 0.00 2 886.4
20230324150801 0 327 4.3 11.3 0.00 0.00 0.00 2 886.4
20230324145802 0 256 2.6 7.0 0.00 0.00 0.00 2 886.4
20230324145305 0 276 4.3 8.7 0.00 0.00 0.00 2 886.4
20230324144802 0 272 3.5 7.8 0.00 0.00 0.00 2 886.4
20230324144303 0 240 4.3 7.8 0.00 0.00 0.00 2 886.4
20230324143303 0 264 2.6 11.3 0.00 0.00 0.00 2 886.4
20230324142802 0 268 2.6 7.8 0.00 0.00 0.00 2 886.4
20230324142305 0 272 2.6 10.4 0.00 0.00 0.00 2 886.4
20230324141801 0 240 4.3 12.2 0.00 0.00 0.00 2 886.4
20230324140802 0 242 2.6 7.8 0.00 0.00 0.00 2 886.4
20230324140302 0 246 4.3 8.7 0.00 0.00 0.00 2 886.4
20230324135802 0 263 5.2 10.4 0.00 0.00 0.00 2 886.4
20230324135304 0 253 4.3 10.4 0.00 0.00 0.00 2 886.4
20230324134801 0 324 2.6 7.0 0.00 0.00 0.00 2 886.4
20230324134302 0 285 3.5 7.8 0.00 0.00 0.00 2 886.4
20230324133802 0 217 6.1 10.4 0.00 0.00 0.00 2 886.4
20230324133303 0 211 1.7 7.8 0.00 0.00 0.00 2 886.4
20230324132803 0 288 2.6 7.0 0.00 0.00 0.00 2 886.4
20230324132304 0 260 0.9 4.3 0.00 0.00 0.00 2 886.4
20230324131802 0 307 2.6 6.1 0.00 0.00 0.00 2 886.4
20230324131302 0 241 2.6 7.8 0.00 0.00 0.00 2 886.4
20230324130304 0 249 5.2 8.7 0.00 0.00 0.00 2 886.4
20230324125802 0 240 1.7 10.4 0.00 0.00 0.00 2 886.4
20230324125305 0 235 4.3 8.7 0.00 0.00 0.00 2 886.4
20230324124801 0 218 2.6 6.1 0.00 0.00 0.00 2 886.4
20230324124301 0 212 4.3 11.3 0.00 0.00 0.00 2 886.4
20230324123802 0 239 0.9 7.8 0.00 0.00 0.00 2 886.4
20230324123302 0 224 1.7 7.8 0.00 0.00 0.00 2 886.4
20230324122802 0 216 3.5 7.0 0.00 0.00 0.00 2 886.4
20230324122305 0 299 2.6 7.0 0.00 0.00 0.00 2 886.4
20230324121802 0 256 5.2 11.3 0.00 0.00 0.00 2 886.4
20230324121301 0 237 3.5 7.0 0.00 0.00 0.00 2 886.4
20230324120802 0 224 1.7 7.0 0.00 0.00 0.00 2 886.4
20230324120302 0 223 4.3 6.1 0.00 0.00 0.00 2 886.4
20230324115802 0 242 0.9 5.2 0.00 0.00 0.00 2 886.4
20230324115305 0 224 0.9 4.3 0.00 0.00 0.00 2 886.4
20230324114802 0 223 3.5 7.8 0.00 0.00 0.00 2 886.4
20230324113804 0 183 2.6 5.2 0.00 0.00 0.00 2 886.4
20230324112802 0 227 0.9 5.2 0.00 0.00 0.00 2 886.4
20230324112305 0 157 0.9 5.2 0.00 0.00 0.00 2 886.4
20230324111801 0 241 0.9 6.1 0.00 0.00 0.00 2 886.4
20230324111302 0 254 0.9 5.2 0.00 0.00 0.00 2 886.4
20230324110802 0 196 0.0 1.7 0.00 0.00 0.00 2 886.4
20230324105802 0 179 0.0 0.0 0.00 0.00 0.00 2 886.4
20230324104802 0 179 0.0 1.7 0.00 0.00 0.00 2 886.4
20230324104302 0 196 0.0 2.6 0.00 0.00 0.00 2 886.4
20230324103302 0 240 2.6 6.1 0.00 0.00 0.00 2 886.4
20230324102802 0 239 2.6 6.1 0.00 0.00 0.00 2 886.4
20230324102305 0 231 4.3 7.8 0.00 0.00 0.00 2 886.4
20230324100802 0 228 2.6 7.8 0.00 0.00 0.00 2 886.4
20230324100302 0 222 1.7 7.8 0.00 0.00 0.00 2 886.4
20230324095801 0 233 3.5 7.0 0.00 0.00 0.00 2 886.4
20230324095304 0 224 0.9 6.1 0.00 0.00 0.00 2 886.4
20230324094803 0 234 4.3 7.8 0.00 0.00 0.00 2 886.4
20230324094302 0 220 2.6 6.1 0.00 0.00 0.00 2 886.4
20230324093302 0 248 1.7 4.3 0.00 0.00 0.00 2 886.4
20230324092802 0 245 1.7 5.2 0.00 0.00 0.00 2 886.4
20230324092305 0 235 4.3 8.7 0.00 0.00 0.00 2 886.4
20230324091801 0 270 0.0 6.1 0.00 0.00 0.00 2 886.4
20230324091301 0 250 0.9 7.8 0.00 0.00 0.00 2 886.4
20230324090802 0 233 1.7 5.2 0.00 0.00 0.00 2 886.4
20230324090302 0 230 2.6 7.0 0.00 0.00 0.00 2 886.4
20230324085305 0 161 1.7 7.0 0.00 0.00 0.00 2 886.4
20230324084802 0 217 2.6 7.8 0.00 0.00 0.00 2 886.4
20230324084302 0 226 3.5 6.1 0.00 0.00 0.00 2 886.4
20230324083802 0 239 0.0 2.6 0.00 0.00 0.00 2 886.4
20230324082803 0 209 0.9 7.0 0.00 0.00 0.00 2 886.4
20230324082305 0 208 0.9 2.6 0.00 0.00 0.00 2 886.4
20230324081302 0 204 0.9 4.3 0.00 0.00 0.00 2 886.4
20230324080803 0 246 0.0 1.7 0.00 0.00 0.00 2 886.4
20230324080302 0 145 0.0 4.3 0.00 0.00 0.00 2 886.4
20230324075802 0 168 0.9 7.8 0.00 0.00 0.00 2 886.4
20230324075305 0 245 2.6 4.3 0.00 0.00 0.00 2 886.4
20230324074801 0 242 1.7 5.2 0.00 0.00 0.00 2 886.4
20230324074303 0 196 2.6 5.2 0.00 0.00 0.00 2 886.4
20230324073802 0 192 1.7 5.2 0.00 0.00 0.00 2 886.4